Weather reports worldwide

Advertisment
Wilkes-Barre/Scrant PA, United States of America (72513): temperature & dewpoint: 13.08.2018 15:00:00 - 19.08.2018 15:00:00 (EDT)Wilkes-Barre/Scrant PA, United States of America (72513): wind speed: 13.08.2018 15:00:00 - 19.08.2018 15:00:00 (EDT)Wilkes-Barre/Scrant PA, United States of America (72513): wind direction: 13.08.2018 15:00:00 - 19.08.2018 15:00:00 (EDT)Wilkes-Barre/Scrant PA, United States of America (72513): reduced air pressure: 13.08.2018 15:00:00 - 19.08.2018 15:00:00 (EDT)Wilkes-Barre/Scrant PA, United States of America (72513): visibility: 13.08.2018 15:00:00 - 19.08.2018 15:00:00 (EDT)Wilkes-Barre/Scrant PA, United States of America (72513): precipitation: 13.08.2018 15:00:00 - 19.08.2018 15:00:00 (EDT)
Date & Time tt [°C] td [°C] ff [km/h] ff [kn] dd ppp [hPa] vv [km] rr [mm]
19.08.2018 15:00:00 23,3 16,1 13 7 ENE 1015,6 16 -
19.08.2018 14:00:00 23,3 16,1 11 6 ENE 1015,6 16 0,0
19.08.2018 13:00:00 22,8 16,1 9 5 - 1015,5 16 -
19.08.2018 12:00:00 22,2 16,1 11 6 NE 1015,3 16 -
19.08.2018 11:00:00 20,6 16,7 13 7 NE 1015,6 16 0,0
19.08.2018 10:00:00 20,6 17,2 8 4 - 1015,3 16 -
19.08.2018 09:00:00 19,4 16,7 8 4 NE 1015,0 16 -
19.08.2018 08:00:00 19,4 16,1 8 4 ENE 1014,5 16 0,0
19.08.2018 07:00:00 19,4 15,6 8 4 ENE 1013,6 16 -
19.08.2018 06:00:00 19,4 16,1 5 3 NE 1012,9 16 -
19.08.2018 05:00:00 19,4 17,2 0 0 N 1012,7 16 0,0
19.08.2018 04:00:00 20,0 17,2 5 3 NE 1012,5 16 -
19.08.2018 03:00:00 20,0 17,2 8 4 NE 1012,2 16 -
19.08.2018 02:00:00 20,0 17,2 5 3 N 1012,1 16 0,0
19.08.2018 01:00:00 20,6 17,2 5 3 NNE 1012,1 16 -
19.08.2018 00:00:00 20,6 17,2 5 3 N 1012,1 16 -
18.08.2018 23:00:00 20,6 17,2 9 5 NNE 1012,5 16 0,0
18.08.2018 22:00:00 21,1 17,2 9 5 NNE 1012,4 16 -
18.08.2018 21:00:00 21,7 17,2 8 4 N 1011,7 16 -
18.08.2018 20:00:00 22,2 17,8 5 3 N 1011,2 16 -
18.08.2018 19:00:00 22,8 17,8 18 10 N 1010,4 16 -
18.08.2018 18:00:00 23,9 18,9 13 7 NNW 1010,1 16 -
18.08.2018 17:00:00 23,9 19,4 11 6 NNW 1010,0 16 -
18.08.2018 16:00:00 23,9 20,0 13 7 NW 1009,8 16 0,0
18.08.2018 15:00:00 22,8 21,7 5 3 - 1010,1 8 8,1
18.08.2018 14:00:00 22,8 20,6 5 3 SE 1010,1 2,0 3,0
18.08.2018 13:00:00 27,8 20,0 22 12 SW 1009,2 16 -
18.08.2018 12:00:00 26,7 20,6 16 9 SW 1009,8 16 -
18.08.2018 11:00:00 25,0 20,6 16 9 WSW 1010,6 15 0,0
18.08.2018 10:00:00 23,9 21,7 15 8 SW 1010,8 13 -
18.08.2018 09:00:00 23,3 21,7 11 6 WSW 1011,2 11 -
18.08.2018 08:00:00 22,2 21,7 8 4 SW 1011,4 10 -
18.08.2018 07:00:00 22,2 21,7 5 3 SSW 1011,5 8 -
18.08.2018 06:00:00 22,2 21,7 9 5 SW 1011,4 10 0,0
18.08.2018 05:00:00 22,8 21,7 9 5 SW 1011,8 10 -
18.08.2018 04:00:00 22,8 21,7 8 4 SW 1011,9 11 -
18.08.2018 03:00:00 22,8 21,7 8 4 WSW 1012,1 13 0,0
18.08.2018 02:00:00 22,2 21,7 8 4 SSW 1012,7 11 -
18.08.2018 01:00:00 22,2 21,7 0 0 N 1012,9 10 -
18.08.2018 00:00:00 22,8 21,7 8 4 W 1013,1 15 -
17.08.2018 23:00:00 22,8 21,7 8 4 SSW 1013,5 11 -
17.08.2018 22:00:00 22,8 22,2 8 4 SW 1013,8 11 -
17.08.2018 21:00:00 23,3 22,2 8 4 SW 1013,7 13 6,9
17.08.2018 20:00:00 23,9 22,8 11 6 WNW 1013,4 11 0,3
17.08.2018 19:00:00 23,9 22,8 8 4 SW 1012,4 6 0,0
17.08.2018 18:00:00 28,9 21,1 11 6 SW 1012,4 13 0,0
17.08.2018 17:00:00 29,4 21,1 22 12 SW 1012,7 13 0,0
17.08.2018 16:00:00 30,0 21,1 18 10 SSW 1013,0 13 -
17.08.2018 15:00:00 30,6 20,6 22 12 S 1013,8 15 -
17.08.2018 14:00:00 30,0 20,0 21 11 WSW 1014,7 15 -
17.08.2018 13:00:00 30,0 22,2 16 9 W 1015,4 13 -
17.08.2018 12:00:00 27,8 22,8 8 4 W 1016,4 11 -
17.08.2018 11:00:00 25,0 21,7 0 0 N 1017,3 10 0,0
17.08.2018 10:00:00 22,8 21,7 0 0 N 1017,9 4,8 2,3
17.08.2018 09:00:00 22,2 20,6 5 3 SW 1018,9 4,0 0,0
17.08.2018 08:00:00 22,2 20,0 0 0 N 1018,5 8 0,0
17.08.2018 07:00:00 21,7 20,0 0 0 N 1018,0 8 -
17.08.2018 06:00:00 21,1 19,4 5 3 ESE 1017,9 10 -
17.08.2018 05:00:00 21,7 19,4 9 5 E 1017,8 11 0,0
17.08.2018 04:00:00 21,7 19,4 8 4 E 1018,2 11 -
17.08.2018 03:00:00 21,7 19,4 8 4 ESE 1018,5 11 -
17.08.2018 02:00:00 21,7 20,0 8 4 E 1018,6 11 0,0
17.08.2018 01:00:00 21,7 20,0 8 4 ESE 1018,9 11 -
17.08.2018 00:00:00 22,2 20,0 5 3 ESE 1018,7 11 -
16.08.2018 23:00:00 22,2 20,0 5 3 ESE 1018,8 11 0,0
16.08.2018 22:00:00 23,3 20,6 0 0 N 1018,9 11 -
16.08.2018 21:00:00 25,0 20,0 0 0 N 1018,5 13 -
16.08.2018 20:00:00 26,1 20,0 5 3 SSW 1018,3 11 -
16.08.2018 19:00:00 27,8 18,9 13 7 SW 1017,8 11 -
16.08.2018 18:00:00 29,4 19,4 21 11 WSW 1017,3 13 -
16.08.2018 17:00:00 29,4 18,3 16 9 WSW 1017,4 11 -
16.08.2018 16:00:00 30,0 18,9 0 0 N 1017,3 11 -
16.08.2018 15:00:00 27,8 20,0 8 4 E 1018,0 13 0,0
16.08.2018 14:00:00 28,9 19,4 8 4 - 1018,4 11 -
16.08.2018 13:00:00 28,9 18,9 9 5 W 1018,7 11 -
16.08.2018 12:00:00 27,8 20,0 5 3 WSW 1018,9 11 -
16.08.2018 11:00:00 27,2 20,0 0 0 N 1018,9 11 0,0
16.08.2018 10:00:00 25,6 20,0 8 4 WSW 1018,8 10 -
16.08.2018 09:00:00 23,3 20,0 11 6 WSW 1018,9 8 -
16.08.2018 08:00:00 21,1 20,0 0 0 N 1018,7 6 0,0
16.08.2018 07:00:00 19,4 18,9 0 0 N 1018,1 4,8 -
16.08.2018 06:00:00 20,0 18,9 0 0 N 1017,4 8 -
16.08.2018 05:00:00 20,6 20,0 0 0 N 1017,1 8 0,0
16.08.2018 04:00:00 21,7 20,0 9 5 SW 1016,9 11 -
16.08.2018 03:00:00 22,2 20,0 5 3 SW 1016,5 11 -
16.08.2018 02:00:00 21,1 20,0 5 3 SSW 1016,8 10 0,0
16.08.2018 01:00:00 21,7 20,6 0 0 N 1016,6 10 -
16.08.2018 00:00:00 22,8 20,6 0 0 N 1016,3 11 -
15.08.2018 23:00:00 24,4 20,6 5 3 SW 1015,9 13 0,0
15.08.2018 22:00:00 25,0 21,1 9 5 SW 1015,8 11 -
15.08.2018 21:00:00 25,0 21,7 5 3 S 1015,1 11 -
15.08.2018 20:00:00 26,1 21,7 0 0 N 1014,6 11 0,0
15.08.2018 19:00:00 28,3 21,1 13 7 WSW 1013,8 11 -
15.08.2018 18:00:00 28,3 20,6 15 8 SW 1013,7 13 -
15.08.2018 17:00:00 29,4 20,6 16 9 WSW 1013,6 13 0,0
15.08.2018 16:00:00 27,8 20,0 11 6 SW 1013,9 13 -
15.08.2018 15:00:00 28,9 20,0 15 8 W 1014,1 13 -
15.08.2018 14:00:00 28,3 18,9 8 4 NNW 1014,2 15 0,0
15.08.2018 13:00:00 27,8 20,0 9 5 WNW 1014,5 15 -
15.08.2018 12:00:00 26,1 20,0 8 4 W 1014,7 13 -
15.08.2018 11:00:00 23,9 19,4 8 4 SSW 1014,5 13 0,0
15.08.2018 10:00:00 22,8 19,4 8 4 WSW 1014,4 13 -
15.08.2018 09:00:00 21,1 18,9 9 5 WSW 1014,2 11 -
15.08.2018 08:00:00 19,4 18,9 9 5 WSW 1014,2 10 0,0
15.08.2018 07:00:00 18,3 18,3 9 5 SW 1013,9 6 -
15.08.2018 06:00:00 18,3 17,8 5 3 NNW 1013,0 1,2 -
15.08.2018 05:00:00 18,9 18,3 5 3 SW 1012,5 10 0,0
15.08.2018 04:00:00 19,4 18,9 9 5 SW 1012,2 11 -
15.08.2018 03:00:00 19,4 18,9 9 5 SSW 1012,0 11 -
15.08.2018 02:00:00 19,4 18,9 8 4 WSW 1012,2 10 -
15.08.2018 01:00:00 19,4 18,3 8 4 SW 1012,4 15 0,0
15.08.2018 00:00:00 18,9 18,3 0 0 N 1012,3 11 4,8
14.08.2018 23:00:00 20,0 19,4 16 9 W 1011,9 3,2 1,3
14.08.2018 22:00:00 20,0 20,0 9 5 SSW 1012,1 4,8 0,5
14.08.2018 21:00:00 20,0 19,4 13 7 W 1011,3 2,8 1,0
14.08.2018 20:00:00 20,0 19,4 5 3 SW 1011,1 16 0,3
14.08.2018 19:00:00 20,0 19,4 9 5 SW 1010,7 10 0,0
14.08.2018 18:00:00 20,0 19,4 8 4 SSW 1010,5 16 0,0
14.08.2018 17:00:00 20,6 20,0 11 6 W 1010,2 2,8 1,8
14.08.2018 16:00:00 21,7 17,8 15 8 SW 1010,5 15 0,0
14.08.2018 15:00:00 23,3 18,3 15 8 SW 1010,3 16 0,0
14.08.2018 14:00:00 22,8 18,3 16 9 WSW 1011,2 16 0,0
14.08.2018 13:00:00 22,2 18,9 13 7 WSW 1011,4 16 0,0
14.08.2018 12:00:00 20,6 18,3 13 7 SW 1012,0 11 0,3
14.08.2018 11:00:00 21,1 18,9 9 5 - 1011,8 16 0,0
14.08.2018 10:00:00 20,0 19,4 11 6 WSW 1011,6 16 0,5
14.08.2018 09:00:00 20,0 18,9 11 6 SW 1011,6 16 0,0
14.08.2018 08:00:00 20,6 19,4 8 4 SW 1011,8 15 0,0
14.08.2018 07:00:00 19,4 19,4 0 0 N 1011,3 11 -
14.08.2018 06:00:00 18,9 18,9 0 0 N 1011,2 13 -
14.08.2018 05:00:00 19,4 18,9 0 0 N 1011,0 3,2 0,0
14.08.2018 04:00:00 19,4 18,9 0 0 N 1011,4 10 -
14.08.2018 03:00:00 20,0 19,4 0 0 N 1011,8 16 -
14.08.2018 02:00:00 20,0 19,4 5 3 WNW 1012,3 16 0,0
14.08.2018 01:00:00 20,6 20,0 8 4 NNW 1012,6 2,8 0,0
14.08.2018 00:00:00 20,6 20,0 0 0 N 1013,1 15 -
13.08.2018 23:00:00 20,0 20,0 9 5 NNE 1012,9 15 1,0
13.08.2018 22:00:00 20,0 20,0 9 5 NNE 1013,3 4,8 0,8
13.08.2018 21:00:00 20,0 20,0 8 4 NNE 1013,1 3,2 7,4
13.08.2018 20:00:00 20,6 20,0 8 4 NNE 1013,0 8 0,0
13.08.2018 19:00:00 20,6 20,6 11 6 N 1012,9 2,8 3,0
13.08.2018 18:00:00 21,1 20,6 8 4 N 1013,3 3,2 1,3
13.08.2018 17:00:00 21,1 20,6 13 7 NNE 1013,5 2,8 11,2
13.08.2018 16:00:00 20,6 20,6 5 3 N 1014,1 1,2 5,3
13.08.2018 15:00:00 20,6 20,0 8 4 NNW 1014,6 2,4 3,0

tt = temperature
td = dewpoint
ff = wind speed
dd = wind direction
ppp = reduced air pressure
vv = visibility
rr = precipitation

Next stations